STARLINK-1558 (46035 NORAD) Tracking and Keplerian Element Data

This shows tracking and keplerian element data for the satellite.

Feedback or suggestion? Click here.




ElementValue
Catalog46035
NameSTARLINK-1558
Epoch Orbit1893
Epoch Day336.88100732
Epoch Year2020
RAAN122.929
Inclination53.0014
Eccentricity0.0001625
Argument of Perigee77.439
Mean Anonmoly282.678
Mean Motion15.05583746
Decay Rate-4.35E-06
L11 46035U 20055J 20336.88100732 -.00000435 00000-0 -10652-4 0 9995
L22 46035 53.0014 122.9290 0001625 77.4390 282.6780 15.05583746 18930

Live tracking and technical data element details for STARLINK-1558 (NORAD 46035). STARLINK-1558 can be tracked NOW for your location showing map with azimuth and elevation plus other details from your city location.

Track the satellite on the map from your city or location and see movement details for azimuth, elevation, latitude, longitude, range, height, and movement on the map or in text.







IsCatalogInMostPopularTable: catalog: 46035, numindb: 24
Update: records affected: 1



GetName: 46035 STARLINK-1558

Hit Count: updated at: Thu, 03 Dec 2020 08:04:12 GMT